Tracking 27122 objects as of 24-Mar-2023
HD Live streaming from Space Station
objects crossing your sky now

COSMOS 1375 DEB

Track COSMOS 1375 DEB now!
10-day predictions


NORAD ID: 16377
Int'l Code: 1982-055R
Perigee: 857.6 km
Apogee: 931.9 km
Inclination: 65.8 °
Period: 102.7 minutes
Semi major axis: 7265 km
RCS: 0.033 m2 (small)
Launch date: June 6, 1982
Source: Commonwealth of Independent States (former USSR) (CIS)
Launch site: PLESETSK MISSILE AND SPACE COMPLEX (PKMTR)

Note: This is SATELLITE DEBRIS
Your satellite tracking list
Your tracking list is empty




NASA's NSSDC Master Catalog

Two Line Element Set (TLE):
1 16377U 82055R   23083.30808512  .00008231  00000-0  54001-2 0  9993
2 16377  65.8254 187.1929 0051100 278.7331 114.1601 14.01791262901503
Source of the keplerian elements: AFSPC